Dickinson, ND

12:34 PM MDT on March 23, 2017 (GMT -0600)
Dickinson Municipal

Weather History for KDIK - January, 2012

Change the Weather History Date:

Monday, January 23, 2012

  Actual Average Record
Temperature  
Mean Temperature 21 °F 17 °F  
Max Temperature 36 °F 27 °F 63 °F (1981)
Min Temperature 5 °F 7 °F -37 °F (1935)
Degree Days  
Heating Degree Days 44 48  
Month to date heating degree days 1007 1125  
Since 1 July heating degree days 3991 4662  
Cooling Degree Days 0 0  
Month to date cooling degree days 0 0  
Year to date cooling degree days 0 0  
Moisture  
Dew Point 14 °F    
Average Humidity 72    
Maximum Humidity 92    
Minimum Humidity 52    
Precipitation  
Precipitation 0.00 in 0.00 in 0.33 in (1949)
Month to date precipitation 0.12 0.23  
Year to date precipitation 0.12 0.23  
Sea Level Pressure  
Sea Level Pressure 29.89 in    
Wind  
Wind Speed 7 mph (WSW)    
Max Wind Speed 16 mph    
Max Gust Speed 22 mph    
Visibility 10 miles    
Events      
T = Trace of Precipitation, MM = Missing Value Source: NWS Daily Summary

Daily Weather History Graph

Daily Weather History Graph

Search for Another Location

Airport or City:

Trip Planner

Search our weather history database for the weather conditions in past years. The results will help you decide how hot, cold, wet, or windy it might be!

Date:

Astronomy

Jan. 23, 2012 Rise Set
Actual Time 7:25 AM MST 4:40 PM MST
Civil Twilight 6:52 AM MST 5:13 PM MST
Nautical Twilight 6:15 AM MST 5:50 PM MST
Astronomical Twilight 5:39 AM MST 6:26 PM MST
Moon 7:18 AM MST 5:36 PM MST
Length of Visible Light 10h 21m
Length of Day
9h 14m
New Moon, 0% of the Moon is Illuminated
Jan 23
New Moon
Jan 30
First Quarter
Feb 7
Full
Feb 14
Last Quarter
Feb 21
New

Hourly Weather History & Observations

Time (MST) Temp. Windchill Dew Point Humidity Pressure Visibility Wind Dir Wind Speed Gust Speed Precip Events Conditions
12:25 AM 15.8 °F 3.4 °F 10.4 °F 79% 29.73 in 10.0 mi NW 10.4 mph - N/A   Scattered Clouds
12:56 AM 12.0 °F 1.5 °F 9.0 °F 88% 29.83 in 10.0 mi NW 6.9 mph - N/A   Clear
1:56 AM 9.0 °F -3.2 °F 6.1 °F 88% 29.88 in 10.0 mi WNW 8.1 mph - N/A   Clear
2:56 AM 10.9 °F -2.6 °F 7.0 °F 84% 29.89 in 10.0 mi WNW 10.4 mph - N/A   Clear
3:56 AM 9.0 °F -5.9 °F 6.1 °F 88% 29.90 in 10.0 mi NW 11.5 mph - N/A   Clear
5:56 AM 7.0 °F -1.7 °F 3.9 °F 87% 29.92 in 10.0 mi West 4.6 mph - N/A   Clear
6:56 AM 6.1 °F -6.8 °F 3.0 °F 87% 29.92 in 10.0 mi West 8.1 mph - N/A   Clear
8:56 AM 12.9 °F 5.2 °F 10.0 °F 88% 29.92 in 10.0 mi West 4.6 mph - N/A   Clear
9:56 AM 19.0 °F 11.1 °F 16.0 °F 88% 29.91 in 10.0 mi West 5.8 mph - N/A   Clear
10:56 AM 26.1 °F 19.4 °F 21.0 °F 81% 29.90 in 10.0 mi WNW 5.8 mph - N/A   Clear
11:56 AM 30.0 °F 26.5 °F 23.0 °F 75% 29.86 in 10.0 mi NW 3.5 mph - N/A   Clear
12:56 PM 32.0 °F 27.5 °F 23.0 °F 69% 29.86 in 10.0 mi West 4.6 mph - N/A   Clear
3:56 PM 34.0 °F 28.8 °F 23.0 °F 64% 29.87 in 10.0 mi SSE 5.8 mph - N/A   Clear
4:56 PM 26.1 °F 18.4 °F 19.0 °F 75% 29.90 in 10.0 mi SE 6.9 mph - N/A   Clear
5:56 PM 24.1 °F 13.7 °F 18.0 °F 77% 29.91 in 10.0 mi South 10.4 mph - N/A   Clear
6:56 PM 19.9 °F 10.1 °F 16.0 °F 85% 29.92 in 10.0 mi South 8.1 mph - N/A   Clear
7:56 PM 19.0 °F 8.2 °F 15.1 °F 85% 29.92 in 10.0 mi South 9.2 mph - N/A   Clear
8:56 PM 21.0 °F 10.6 °F 16.0 °F 81% 29.90 in 10.0 mi South 9.2 mph - N/A   Clear
9:56 PM 19.0 °F 8.2 °F 15.1 °F 85% 29.91 in 10.0 mi SSW 9.2 mph - N/A   Clear
10:56 PM 26.1 °F 21.9 °F 19.0 °F 75% 29.89 in 10.0 mi SW 3.5 mph - N/A   Mostly Cloudy
11:56 PM 24.1 °F 14.4 °F 18.0 °F 77% 29.90 in 10.0 mi SSW 9.2 mph - N/A   Partly Cloudy